Regional Weather Roundup
Issued by NWS

Home | Current Version | Previous Version | Graphics & Text | Print | Product List | Glossary On
Versions: 1 2 3 4 5 6 7 8 9 10 11 12 13 14 15 16 17 18 19 20 21 22 23 24 25 26 27 28 29 30 31 32 33 34 35 36 37 38 39 40 41 42 43 44 45 46 47 48 49 50
990
ASUS44 KLIX 300801
RWRLA
LOUISIANA WEATHER ROUNDUP
NATIONAL WEATHER SERVICE NEW ORLEANS LA
300 AM CDT TUE SEP 30 2014

NOTE: "FAIR" INDICATES FEW OR NO CLOUDS BELOW 12,000 FEET WITH NO
      SIGNIFICANT WEATHER AND/OR OBSTRUCTIONS TO VISIBILITY.
      SKY/WX - SKY CONDITION AND SIGNIFICANT WEATHER.
      TMP - AIR TEMPERATURE.    DP   - DEWPOINT TEMPERATURE.
      RH  - RELATIVE HUMIDITY.  PRES - PRESSURE.
      HX  - HEAT INDEX.         WCI  - WIND CHILL INDEX.

*  THESE STATIONS ARE NOT NWS OR FAA STATIONS AND ARE NOT UNDER
   NWS QUALITY CONTROL.

LAZ040-048-061>063-065-066-069-300900-
SOUTHEAST LOUISIANA

CITY           SKY/WX    TMP DP  RH WIND       PRES   REMARKS
N.O. AUDUBON   NOT AVBL
N.O. INTL ARPT CLEAR     74  71  91 CALM      29.87S
N.O. LAKEFRONT CLEAR     78  73  84 NE3       29.87S
N.O. DOWNTOWN* FAIR      77  70  78 CALM      29.87S
SLIDELL        CLEAR     70  67  90 CALM      29.87S
BATON ROUGE    CLEAR     71  69  93 CALM      29.87F
BOOTHVILLE     CLEAR     77  74  90 CALM      29.86F
BELLE CHASSE   CLEAR     72  68  87 CALM      29.86S
BOGALUSA*      FAIR      70  67  89 CALM      29.89S
GALLIANO*      NOT AVBL
NEW ROADS*     FAIR      71  70  98 CALM      29.87S
GONZALES*      FAIR      71  71 100 CALM      29.87S
HAMMOND*       NOT AVBL
HOUMA*           N/A    N/A N/A N/A CALM      29.87S FOG
PORT FOURCHON* SUNNY     77  73  88 CALM      29.90S

$$

LAZ041-044-053-054-300900-
SOUTHWEST LOUISIANA

CITY           SKY/WX    TMP DP  RH WIND       PRES   REMARKS
LAKE CHARLES   CLEAR     73  71  93 CALM      29.86S
LAFAYETTE      CLEAR     72  72 100 CALM      29.87S
PATTERSON        N/A     72  70  94 CALM      29.89F VSB 1/2
SALT POINT       N/A     76  74  93 CALM      29.86S
NEW IBERIA     FOG       73  71  93 CALM      29.87F VSB 1
CHENAULT AIRPK CLEAR     73  72  96 NE3       29.87S

$$

LAZ027-028-300900-
CENTRAL LOUISIANA

CITY           SKY/WX    TMP DP  RH WIND       PRES   REMARKS
FORT POLK      CLEAR     72  70  92 E3        29.88R
ALEXANDRIA INT CLEAR     68  66  93 CALM      29.87R
ALEXANDRIA     PTCLDY    69  67  93 CALM      29.89R FOG

$$

LAZ001-002-300900-
NORTHWEST LOUISIANA

CITY           SKY/WX    TMP DP  RH WIND       PRES   REMARKS
SHREVEPORT     PTCLDY    71  65  81 CALM      29.89S
BARKSDALE AFB  CLOUDY    71  65  79 N1        29.90S
DTN SHREVEPORT CLOUDY    71  66  84 CALM      29.90R

$$

LAZ014-016-300900-
NORTHEAST LOUISIANA

CITY           SKY/WX    TMP DP  RH WIND       PRES   REMARKS
MONROE         CLEAR     70  62  76 NE3       29.90S
TALLULAH       CLEAR     65  63  93 CALM      29.89S

$$




USA.gov is the U.S. government's official web portal to all federal, state and local government web resources and services.